Regional Weather Roundup
Issued by NWS Sterling, VA

Home | Current Version | Previous Version | Graphics & Text | Print | Product List | Glossary On
Versions: 1 2 3 4 5 6 7 8 9 10 11 12 13 14 15 16 17 18 19 20 21 22 23 24 25 26 27
000
ASUS41 KLWX 221510
RWRLWX

REGIONAL WEATHER ROUNDUP
NATIONAL WEATHER SERVICE BALTIMORE MD/WASHINGTON DC
1100 AM EDT WED OCT 22 2014

Note: "FAIR" indicates few or no clouds below 12,000 feet
with no significant weather and/or obstructions to visibility.
 TC=TEMPERATURE CELSIUS

 * =Non NWS site. Station does not report precipitation (e.g. rain,
    snow, etc.), thunder, or fog.

DCZ001-MDZ009-015-VAZ040>042-051-053>054-221600-
WASHINGTON METRO

CITY           SKY/WX    TMP DP  RH WIND       PRES   REMARKS
WASHINGTON NAT NOT AVBL
DULLES         NOT AVBL
QUANTICO       LGT RAIN  54  50  86 N15G26    29.94S FOG

$$

MDZ006>007-011-014-221600-
BALTIMORE METRO

CITY           SKY/WX    TMP DP  RH WIND       PRES   REMARKS
BWI AIRPORT    NOT AVBL
MD SCIENCE CTR   N/A     55  52  89 MISG      29.92R
ANNAPOLIS      CLOUDY    56  53  90 NW14      29.89S

$$

MDZ012-015-019>023-221600-
MARYLAND EASTERN SHORE

CITY           SKY/WX    TMP DP  RH WIND       PRES   REMARKS
OCEAN CITY     NOT AVBL
SALISBURY      NOT AVBL

$$

MDZ017>025-221600-
SOUTHERN MARYLAND

CITY           SKY/WX    TMP DP  RH WIND       PRES   REMARKS
PATUXENT RIVER LGT RAIN  55  52  89 N15       29.84F FOG
ST INIGOES     CLOUDY    55  51  86 NW5       29.85R
LEONARDTOWN*   NOT AVBL

$$

MDZ003>005-221600-
NORTH CENTRAL MARYLAND

CITY           SKY/WX    TMP DP  RH WIND       PRES   REMARKS
FREDERICK*     NOT AVBL
HAGERSTOWN APT NOT AVBL
WESTMINSTER*   NOT AVBL

$$

MDZ501>502-221600-
WESTERN MARYLAND

CITY           SKY/WX    TMP DP  RH WIND       PRES   REMARKS
OAKLAND*       NOT AVBL
CUMBERLAND*    NOT AVBL

$$

VAZ025>031-221600-
SHENANDOAH VALLEY

CITY           SKY/WX    TMP DP  RH WIND       PRES   REMARKS
WINCHESTER*    NOT AVBL
FRONT ROYAL*   NOT AVBL
LURAY*         NOT AVBL
NEW MARKET*    NOT AVBL
STAUNTON*      NOT AVBL
WAYNESBORO*    NOT AVBL

$$

WVZ021-048>050-054>055-221600-
EASTERN WEST VIRGINIA PANHANDLE

CITY           SKY/WX    TMP DP  RH WIND       PRES   REMARKS
MARTINSBURG    NOT AVBL
PETERSBURG*    NOT AVBL

$$

VAZ036>039-050-221600-
CENTRAL FOOTHILLS

CITY           SKY/WX    TMP DP  RH WIND       PRES   REMARKS
CHARLOTTESVILL NOT AVBL
CULPEPER*      NOT AVBL
ORANGE*        NOT AVBL
GORDONSVILLE*  NOT AVBL
WARRENTON*     NOT AVBL

$$

VAZ055>057-221600-
NORTH AND CENTRAL PIEDMONT

CITY           SKY/WX    TMP DP  RH WIND       PRES   REMARKS
FREDERICKSBRG* NOT AVBL
STAFFORD*      NOT AVBL

$$

NCZ024-NYZ072-PAZ021-071-VAZ022-071-221600-
OTHER REGIONAL OBSERVATIONS

CITY           SKY/WX    TMP DP  RH WIND       PRES   REMARKS
NEW YORK CITY  LGT RAIN  55  51  86 MISG      29.95F

$$

ANZ530>537-221600-
MARINE OBSERVATIONS

STATION/POSITION TIME  TEMP    WIND        PRES
                       AIR SEA DIR/SP/G
                 (UTC) (F)     (DEG/KT/KT) (MB)
THOMAS PT LIGHT  1400   55 63  360/ 23/ 25 1012.4R
BALT KEY BRIDGE  1400   55     330/ 16/ 18 1012.4R
COVE POINT       1400   58      10/ 21/ 25 1010.6S
LEWISETTA        1400   56 63  340/ 16/ 25 1010.5F
SOLOMONS ISLAND  1400      65                N/A
PINEY POINT      1400          360/ 17/ 21   N/A

$$




USA.gov is the U.S. government's official web portal to all federal, state and local government web resources and services.